Regional Weather Roundup
Issued by NWS Memphis, TN

Home | Current Version | Previous Version | Text Only | Print | Product List | Glossary On
Versions: 1 2 3 4 5 6 7 8 9 10 11 12 13 14 15 16 17 18 19 20 21 22 23 24 25 26 27 28 29 30 31 32 33 34 35 36 37 38 39 40 41 42 43 44 45 46 47 48 49 50
000
ASUS44 KMEG 290510
RWRMEG
MEMPHIS CWA HOURLY WEATHER ROUNDUP
NATIONAL WEATHER SERVICE MEMPHIS TN
1100 PM CST WED JAN 28 2015

...WEST TENNESSEE...

CITY           SKY/WX    TMP DP  RH WIND       PRES   REMARKS
MEMPHIS INTL   MOCLDY    54  33  45 S13       30.07F
NWS MEMPHIS      N/A     52 N/A N/A MISG        N/A
JACKSON        MOCLDY    51  29  42 S14       30.07F
LEXINGTON      CLEAR     45  28  53 S7        30.11F
SAVANNAH       CLEAR     43  30  61 SE6       30.16S
DYERSBURG      MOCLDY    48  25  40 S10       30.06F
UNION CITY     CLEAR     45  32  61 S12       30.03F
PARIS          CLEAR     43  28  56 S12       30.06F


...EASTERN ARKANSAS...

CITY           SKY/WX    TMP DP  RH WIND       PRES   REMARKS
JONESBORO      MOCLDY    49  38  65 S16       30.00F
WEST MEMPHIS   PTCLDY    49  36  61 S10       30.06S
BATESVILLE     PTCLDY    54  39  58 S5        29.98F
NEWPORT        MOCLDY    51  41  69 S15       30.01F
WALNUT RIDGE   MOCLDY    46  37  71 S5        29.97F
BLYTHEVILLE    MOCLDY    50  35  56 S14       30.02F
SEARCY         PTCLDY    50  41  71 CALM      30.04S
STUTTGART      MOCLDY    54  39  58 S14       30.04F
PINE BLUFF     PTCLDY    59  41  51 S15       30.05F
MONTICELLO     PTCLDY    60  40  47 S14G20    30.08F


...NORTH MISSISSIPPI...

CITY           SKY/WX    TMP DP  RH WIND       PRES   REMARKS
TUPELO         MOCLDY    47  32  56 SW3       30.18R
OXFORD         MOCLDY    48  30  49 SE9       30.14F
OLIVE BRANCH   CLEAR     50  34  53 S12       30.09F
TUNICA         MOCLDY    50  37  62 S16       30.07F
CLARKSDALE     CLOUDY    50  39  66 S12       30.10F
CORINTH        MOCLDY    45  32  61 S9        30.14F
GRENADA        MOCLDY    43  36  75 CALM      30.15F
GREENWOOD      MOCLDY    54  38  54 S9        30.15S
COLUMBUS       MOCLDY    41  31  67 S6        30.20R
STARKVILLE     FAIR      45  32  61 S3        30.20R
GOLDEN TRIANGL MOCLDY    45  30  57 S6        30.19R


...SOUTHEAST MISSOURI...

CITY           SKY/WX    TMP DP  RH WIND       PRES   REMARKS
WEST PLAINS    CLEAR     47  36  65 S9        29.93F
POPLAR BLUFF   CLOUDY    47  35  63 S8        29.97F
CAPE GIRARDEAU CLOUDY    45  33  63 S12       29.99F


...NORTHWEST ALABAMA...

CITY           SKY/WX    TMP DP  RH WIND       PRES   REMARKS
MUSCLE SHOALS  MOCLDY    43  29  57 SE3       30.19R


...MIDDLE TENNESSEE...

CITY           SKY/WX    TMP DP  RH WIND       PRES   REMARKS
NASHVILLE      PTCLDY    42  28  57 S10       30.14F
CLARKSVILLE    PTCLDY    43  28  55 S9        30.09F
COLUMBIA       CLEAR     45  30  57 S8        30.13F


...WESTERN KENTUCKY...

CITY           SKY/WX    TMP DP  RH WIND       PRES   REMARKS
PADUCAH        CLOUDY    47  30  51 S8        30.01F
FORT CAMPBELL  PTCLDY    43  27  53 S9        30.08F


...CENTRAL ARKANSAS...

CITY           SKY/WX    TMP DP  RH WIND       PRES   REMARKS
LITTLE ROCK    PTCLDY    56  40  55 S7        30.02F


SKY/WX REPORTED AS FAIR MEANS FEW OR NO CLOUDS BELOW
12 THOUSAND FEET.



USA.gov is the U.S. government's official web portal to all federal, state and local government web resources and services.